Wind_Speed
36 36 40 40 41 40 44 39 35 40 41 43 42 44 44 44 44 41 42 41 40 40 38 35 37 37 36 37 37 34 32 32 32 31 30 30 30 31 34 35 35 32 32
37 33 36 35 36 36 37 36 42 43 43 44 46 44 46 43 41 42 43 41 40 39 38 35 33 34 34 35 34 31 30 31 30 28 26 26 31 32 34 35 32 29 31
43 41 42 38 35 34 35 41 45 46 48 49 46 44 42 42 43 41 41 41 38 38 37 36 34 32 32 32 32 31 30 30 26 25 26 28 32 35 35 36 35 34 35
44 42 46 40 35 38 38 39 45 49 52 51 49 47 44 44 43 45 42 40 39 36 37 36 35 34 32 31 32 32 32 31 28 26 26 29 25 38 37 38 38 36 36
42 47 44 37 37 39 38 40 46 50 50 49 48 49 47 46 46 47 43 39 37 35 34 35 36 36 35 33 32 32 33 32 32 30 27 26 35 39 38 36 37 38 39
47 44 35 40 41 42 40 42 47 50 50 49 48 47 48 47 47 46 41 38 35 33 35 33 35 36 36 37 36 34 33 34 34 33 32 29 33 37 37 37 37 39 38
39 37 42 46 43 39 38 42 46 48 48 47 47 46 47 47 46 42 38 34 33 33 33 34 36 37 37 37 38 37 36 36 37 36 35 33 33 36 38 36 36 33 33
39 41 38 36 37 34 34 36 41 44 45 43 43 44 45 46 43 39 33 33 32 30 30 30 31 33 35 36 36 37 36 35 34 34 36 36 35 36 35 34 34 33 35
41 39 39 39 37 38 36 38 40 42 42 41 41 42 43 43 41 41 35 34 35 32 31 29 28 28 29 31 32 31 34 32 33 32 35 35 34 34 32 33 34 36 35
45 47 45 42 42 43 38 38 40 39 42 42 43 44 45 46 45 41 41 38 36 35 36 31 29 28 30 32 31 29 26 29 31 33 31 31 32 31 33 32 33 35 34
48 49 51 50 49 43 42 42 41 40 47 49 51 50 49 47 46 41 41 42 40 41 39 39 37 38 39 36 31 30 28 26 28 30 31 30 27 29 34 32 31 31 31
53 51 49 49 46 46 46 47 46 44 44 48 52 48 48 49 47 48 48 46 49 51 48 46 42 42 36 31 34 30 30 28 28 30 31 32 30 29 31 34 30 31 27
46 45 47 50 51 51 50 49 50 48 50 49 53 55 57 48 46 48 54 52 50 48 46 46 46 43 40 37 32 29 28 31 29 30 31 31 30 30 32 34 36 35 32
46 51 53 55 53 51 51 51 51 53 55 58 53 51 56 56 53 43 48 44 45 50 48 46 47 40 37 36 38 37 31 25 27 31 30 31 31 31 31 34 36 35 35
50 54 54 51 49 47 48 53 54 54 55 58 61 61 56 57 57 54 57 61 57 53 48 46 41 36 33 26 32 28 32 33 32 28 30 38 38 39 34 34 33 35 34
53 54 53 52 50 49 51 49 54 57 57 58 59 60 60 59 61 61 62 59 58 61 62 54 49 49 55 49 41 32 31 30 29 31 39 38 42 44 39 38 38 38 37
57 56 58 61 56 53 53 55 56 56 54 57 64 66 71 71 75 74 73 68 63 65 65 65 66 69 67 65 63 54 44 39 33 18 43 31 42 46 43 46 39 40 40
56 58 57 59 61 62 65 66 63 60 62 63 61 63 69 70 72 77 77 81 80 78 71 70 73 76 72 69 70 66 58 53 50 51 60 44 62 55 45 45 47 40 41
56 58 63 65 67 70 70 70 68 71 68 67 68 67 66 69 72 74 74 75 81 82 84 85 85 84 82 72 68 75 72 66 64 63 55 54 51 62 45 45 39 39 40
59 62 65 68 71 73 74 74 77 75 73 74 74 74 75 73 73 76 77 80 82 84 86 86 88 89 88 83 74 74 82 80 74 72 61 59 62 70 52 55 23 55 46
59 66 70 72 74 75 78 81 79 77 79 80 83 82 83 82 78 78 78 82 86 87 88 85 87 89 88 85 83 77 82 87 88 90 75 74 71 66 62 70 64 39 40
66 69 73 75 76 79 83 85 85 85 85 86 89 91 89 84 85 85 87 87 87 88 93 96 97 97 97 94 92 89 82 81 93 95 95 91 86 80 70 80 69 61 62
72 75 78 79 82 84 86 87 88 89 92 96 98 93 91 91 93 94 92 93 94 95 95 95 95 96 98 98 98 95 91 83 87 98 102 102 99 91 81 84 84 85 79
75 76 80 83 85 87 88 89 92 101 104 100 96 95 99 103 106 105 101 97 96 97 98 99 99 97 95 92 90 87 89 89 86 91 100 103 103 100 94 91 97 101 89
78 80 83 85 89 89 91 96 104 102 98 99 101 105 107 106 104 102 95 90 89 91 94 98 99 97 94 94 90 87 86 86 86 84 88 99 107 106 104 102 101 96 97
83 84 85 89 92 93 100 104 103 103 106 107 108 108 106 100 89 82 78 79 81 84 86 88 91 91 91 90 90 87 86 87 87 88 91 92 99 113 111 105 106 103 102
Wind_Direction
296 298 299 302 293 287 287 283 282 291 293 295 295 299 299 300 296 293 291 288 287 286 284 287 288 285 285 283 282 283 282 282 281 281 282 283 283 282 282 285 288 290 296
295 298 301 297 298 289 296 279 287 291 290 290 295 295 298 299 299 297 295 293 290 287 284 283 285 288 286 284 283 283 282 282 280 277 279 284 287 286 291 296 297 296 300
295 291 299 299 296 289 287 285 287 288 290 290 291 291 294 294 294 297 297 295 290 290 285 280 280 283 283 283 286 287 288 287 280 280 286 289 294 291 295 300 302 304 304
291 290 297 293 290 291 285 282 284 286 289 289 291 291 287 287 291 293 290 290 290 289 290 283 279 280 279 279 284 285 285 285 283 285 289 297 293 295 302 305 305 306 306
289 290 292 291 291 297 290 285 287 287 288 290 291 290 287 289 290 294 286 285 288 287 288 284 280 278 276 280 281 282 281 282 282 283 283 290 290 295 302 306 307 307 306
290 292 281 290 298 292 289 286 284 285 285 285 289 287 287 288 291 293 287 286 283 283 286 285 281 281 280 280 285 285 282 279 281 282 283 283 288 298 303 304 305 308 311
286 281 288 294 292 288 289 288 286 285 285 286 289 286 287 292 294 292 287 282 282 283 283 284 283 283 283 282 286 290 290 284 279 281 282 284 287 295 301 303 308 311 316
282 289 291 291 287 282 291 303 296 291 291 291 291 289 291 293 295 292 285 287 285 286 287 285 282 284 284 287 287 288 289 291 286 286 284 283 285 287 298 302 310 310 316
283 286 286 291 283 291 293 298 301 296 296 295 295 297 294 297 293 292 289 289 288 287 287 285 281 283 283 284 287 291 289 290 292 290 286 288 285 289 293 298 310 312 316
287 285 288 289 288 291 289 292 294 293 294 295 295 296 297 295 296 293 290 287 287 289 286 285 283 281 288 283 284 286 286 286 292 294 286 287 286 283 287 296 308 314 313
285 284 289 291 295 289 290 292 291 287 290 291 293 293 296 293 292 293 289 284 285 287 288 283 281 283 291 286 281 283 282 280 281 286 289 287 284 290 286 289 306 311 311
283 283 286 291 293 293 292 290 289 284 286 285 285 289 292 297 295 291 288 285 285 289 289 285 285 281 282 282 290 280 282 285 286 285 290 289 286 289 287 284 298 308 308
279 286 291 292 295 294 291 289 285 281 279 281 282 285 286 282 286 293 291 283 279 283 287 283 279 279 279 277 277 279 284 280 282 291 288 289 297 291 288 286 295 300 308
289 293 295 294 295 293 289 288 289 282 281 280 279 280 282 282 280 286 275 279 275 284 278 281 280 278 278 278 276 276 274 286 287 285 288 287 292 293 293 291 288 291 297
290 293 295 296 296 296 294 291 288 285 284 283 280 281 279 277 276 273 263 272 270 271 280 277 255 264 263 259 273 288 296 285 294 295 295 290 291 289 288 292 285 285 291
291 293 295 295 295 298 299 300 296 288 285 282 280 278 277 277 276 272 270 269 274 273 272 266 256 259 263 252 250 250 244 250 260 278 294 301 294 294 295 290 285 285 287
292 291 292 297 297 300 299 302 302 301 299 293 281 280 280 279 279 278 276 273 266 264 266 267 265 266 265 257 250 249 242 239 235 244 272 279 283 280 280 283 281 283 288
295 296 299 300 299 300 303 304 304 304 303 302 303 292 273 271 272 271 274 276 275 271 267 266 267 269 266 260 252 250 242 236 231 229 225 220 234 251 263 270 274 280 283
295 299 303 303 302 303 302 303 304 305 304 304 304 305 297 278 271 271 273 269 268 270 270 267 268 268 266 255 250 244 242 237 234 236 230 216 219 231 236 249 256 261 268
297 302 305 304 303 303 302 302 303 304 303 304 303 303 301 294 280 273 268 268 268 265 267 266 266 264 264 263 253 239 242 241 235 238 234 236 221 233 232 234 246 244 262
296 303 301 299 301 302 301 302 303 301 302 302 303 300 301 297 288 281 277 271 266 264 262 261 262 263 263 261 261 251 236 240 241 240 233 238 233 228 227 230 230 221 224
298 300 305 303 302 300 300 301 301 300 300 301 301 300 298 291 287 284 280 278 274 269 263 260 258 258 260 260 260 259 256 242 239 240 238 235 233 227 226 228 229 213 206
298 300 303 304 302 301 300 300 299 299 300 300 300 297 293 291 288 285 282 278 275 271 267 263 260 258 257 257 256 256 257 251 249 242 239 236 234 232 226 229 224 223 214
296 297 299 301 301 301 300 300 299 299 300 300 297 295 295 293 292 289 285 280 274 269 266 264 262 261 260 258 255 253 253 250 241 244 246 236 236 234 230 229 231 228 231
294 297 299 299 301 301 299 298 299 300 299 297 297 293 292 292 290 288 283 278 273 268 264 262 262 262 261 260 258 255 250 248 245 238 242 245 236 233 233 231 231 229 229
295 295 297 298 299 298 298 299 297 298 300 299 298 297 295 295 291 286 281 277 272 268 265 263 263 263 263 262 261 258 254 249 242 238 234 239 241 239 234 228 229 227 229
Height
10867 10866 10864 10863 10860 10859 10857 10857 10856 10854 10853 10852 10851 10850 10849 10847 10845 10843 10842 10840 10838 10837 10837 10837 10838 10837 10835 10833 10831 10830 10829 10828 10828 10828 10826 10824 10822 10819 10817 10816 10815 10812 10808
10861 10860 10859 10857 10855 10853 10851 10850 10850 10848 10846 10847 10846 10844 10842 10839 10837 10836 10834 10832 10831 10830 10830 10831 10831 10831 10830 10829 10827 10826 10825 10823 10822 10822 10821 10819 10816 10814 10812 10810 10809 10807 10804
10853 10854 10852 10850 10849 10848 10846 10845 10843 10840 10838 10839 10839 10838 10836 10833 10830 10828 10826 10826 10824 10824 10824 10824 10825 10825 10825 10823 10822 10821 10820 10819 10819 10819 10817 10815 10813 10809 10808 10806 10804 10802 10800
10848 10847 10846 10844 10843 10842 10840 10839 10836 10834 10832 10831 10830 10829 10828 10826 10824 10822 10820 10818 10818 10817 10817 10817 10818 10819 10819 10818 10817 10816 10815 10814 10814 10815 10813 10811 10805 10804 10804 10802 10800 10799 10796
10843 10841 10840 10839 10838 10836 10834 10832 10829 10826 10825 10824 10823 10821 10819 10818 10817 10815 10813 10812 10811 10811 10810 10810 10811 10812 10812 10812 10812 10811 10811 10809 10809 10809 10810 10808 10804 10802 10801 10799 10797 10795 10793
10837 10835 10834 10832 10830 10828 10826 10824 10821 10818 10817 10816 10815 10813 10812 10811 10809 10807 10806 10806 10805 10804 10803 10803 10805 10806 10806 10807 10807 10807 10806 10804 10804 10804 10804 10804 10802 10799 10798 10796 10794 10791 10789
10830 10828 10827 10824 10822 10821 10819 10817 10814 10811 10809 10808 10807 10805 10804 10803 10800 10798 10798 10798 10798 10798 10798 10797 10798 10800 10801 10801 10801 10802 10802 10800 10799 10799 10799 10801 10799 10795 10794 10792 10791 10788 10785
10822 10823 10819 10815 10814 10812 10811 10810 10807 10804 10802 10800 10799 10798 10796 10795 10793 10791 10790 10791 10792 10792 10792 10791 10791 10793 10794 10795 10795 10795 10795 10795 10794 10794 10793 10794 10794 10793 10790 10788 10787 10784 10782
10817 10813 10810 10807 10806 10806 10806 10804 10800 10796 10794 10792 10791 10790 10789 10787 10785 10783 10782 10783 10784 10785 10786 10786 10786 10786 10787 10787 10789 10790 10789 10789 10789 10789 10786 10787 10787 10786 10786 10784 10783 10781 10778
10810 10802 10799 10800 10799 10800 10799 10795 10791 10788 10786 10785 10783 10782 10780 10778 10776 10775 10774 10774 10776 10777 10779 10780 10780 10781 10781 10782 10783 10783 10782 10782 10783 10782 10781 10781 10780 10781 10779 10779 10778 10776 10774
10799 10793 10793 10791 10790 10791 10790 10787 10784 10782 10779 10777 10775 10773 10771 10769 10768 10767 10767 10767 10768 10769 10771 10773 10773 10774 10775 10775 10776 10777 10776 10776 10775 10775 10775 10774 10774 10775 10773 10773 10773 10771 10769
10787 10785 10786 10785 10783 10781 10780 10777 10775 10774 10772 10769 10766 10764 10763 10762 10762 10760 10759 10758 10759 10761 10763 10763 10764 10766 10767 10768 10770 10769 10769 10770 10770 10769 10769 10768 10769 10768 10767 10768 10767 10765 10764
10778 10778 10778 10775 10774 10771 10769 10767 10763 10763 10762 10761 10757 10754 10753 10753 10754 10752 10749 10749 10749 10752 10752 10752 10752 10755 10757 10759 10760 10762 10763 10764 10765 10764 10762 10761 10763 10763 10763 10761 10761 10761 10759
10769 10766 10765 10764 10763 10759 10758 10756 10754 10752 10750 10746 10745 10744 10743 10742 10743 10743 10741 10740 10737 10740 10743 10742 10745 10746 10748 10751 10753 10754 10755 10757 10758 10758 10758 10757 10757 10757 10756 10755 10754 10754 10754
10757 10755 10752 10750 10749 10748 10745 10743 10741 10741 10740 10737 10733 10729 10728 10726 10727 10729 10730 10729 10730 10728 10727 10730 10732 10736 10739 10741 10744 10745 10747 10748 10752 10753 10753 10753 10752 10752 10751 10749 10749 10749 10747
10746 10745 10743 10740 10737 10735 10732 10730 10727 10725 10724 10721 10719 10718 10717 10714 10711 10710 10710 10714 10714 10713 10713 10716 10719 10722 10725 10727 10730 10732 10736 10736 10741 10742 10746 10749 10748 10747 10747 10746 10744 10744 10742
10737 10735 10733 10730 10726 10722 10719 10716 10715 10712 10708 10707 10705 10701 10699 10698 10694 10692 10693 10699 10695 10692 10696 10700 10701 10703 10705 10707 10713 10719 10722 10724 10728 10729 10742 10751 10747 10741 10742 10745 10742 10738 10737
10726 10722 10719 10717 10714 10710 10706 10702 10698 10697 10693 10690 10687 10683 10681 10677 10676 10676 10675 10673 10673 10674 10678 10680 10681 10682 10683 10689 10696 10699 10704 10706 10705 10705 10716 10722 10725 10723 10726 10732 10733 10732 10730
10713 10709 10704 10701 10698 10695 10691 10688 10684 10681 10677 10673 10669 10666 10663 10659 10655 10653 10655 10654 10652 10651 10654 10659 10657 10658 10659 10666 10676 10678 10682 10684 10682 10684 10694 10692 10693 10699 10703 10712 10713 10715 10716
10698 10694 10689 10685 10680 10677 10673 10669 10665 10663 10658 10655 10650 10646 10643 10640 10637 10633 10634 10631 10630 10630 10630 10633 10632 10634 10636 10642 10647 10659 10660 10664 10664 10664 10672 10673 10676 10683 10688 10690 10692 10703 10707
10684 10681 10675 10669 10665 10661 10655 10652 10648 10644 10636 10634 10629 10622 10621 10617 10613 10610 10607 10605 10604 10606 10606 10608 10607 10608 10610 10616 10622 10630 10639 10641 10645 10644 10648 10655 10661 10667 10672 10673 10675 10680 10689
10667 10663 10658 10653 10649 10644 10637 10632 10626 10623 10617 10613 10606 10602 10598 10593 10587 10583 10580 10578 10577 10576 10576 10578 10581 10581 10582 10589 10596 10600 10610 10618 10620 10619 10628 10629 10641 10652 10657 10657 10655 10660 10654
10648 10644 10640 10635 10631 10626 10620 10614 10607 10601 10596 10588 10583 10577 10571 10566 10558 10553 10550 10548 10544 10543 10542 10543 10547 10550 10552 10559 10566 10571 10581 10588 10592 10591 10595 10606 10614 10626 10634 10637 10640 10641 10639
10632 10628 10622 10617 10613 10606 10599 10593 10585 10578 10572 10564 10557 10549 10540 10532 10525 10516 10514 10510 10508 10506 10507 10509 10512 10517 10522 10527 10535 10543 10548 10556 10564 10569 10569 10579 10590 10598 10607 10608 10614 10621 10625
10614 10610 10605 10596 10591 10585 10577 10570 10563 10554 10547 10538 10531 10523 10514 10504 10495 10483 10477 10473 10471 10470 10471 10473 10478 10483 10490 10495 10501 10511 10519 10526 10535 10548 10552 10549 10557 10567 10574 10585 10585 10591 10598
10595 10591 10587 10579 10574 10566 10557 10548 10538 10530 10520 10509 10499 10488 10476 10468 10460 10453 10446 10442 10438 10438 10440 10443 10447 10453 10457 10463 10468 10477 10486 10491 10502 10514 10523 10526 10529 10532 10546 10556 10558 10563 10572